• In Denmark
  • List of Countries
  • For 7 days
  • Water Temperature
  • Satellite Maps
  • Weather Map
  • Weather Widgets
  • user-avatar
    Login

    Hourly Weather Kaposvar

    Today, 23 September, Sunday

    Time Temperature Precipitation Wind Pressure Humidity
    00:00 +13°C° 0 mm 1 mps 752 mmHg 70%
    01:00 +13°C° 0 mm 1 mps 752 mmHg 70%
    02:00 +13°C° 0 mm 1 mps 752 mmHg 68%
    03:00 +13°C° 0 mm 1 mps 752 mmHg 66%
    04:00 +12°C° 0 mm 0 mps 752 mmHg 65%
    05:00 +14°C° 0 mm 1 mps 752 mmHg 63%
    06:00 +14°C° 0 mm 1 mps 752 mmHg 61%
    07:00 +14°C° 0 mm 2 mps 751 mmHg 59%
    08:00 +16°C° 0 mm 2 mps 751 mmHg 53%
    09:00 +18°C° 0 mm 3 mps 751 mmHg 46%
    10:00 +19°C° 0 mm 3 mps 751 mmHg 39%
    11:00 +21°C° 0 mm 3 mps 750 mmHg 39%
    12:00 +24°C° 0 mm 3 mps 750 mmHg 38%
    13:00 +26°C° 0 mm 4 mps 749 mmHg 38%
    14:00 +26°C° 0 mm 4 mps 749 mmHg 39%
    15:00 +27°C° 0 mm 4 mps 748 mmHg 41%
    16:00 +27°C° 0 mm 4 mps 747 mmHg 43%
    17:00 +26°C° 0 mm 3 mps 746 mmHg 49%
    18:00 +24°C° 0 mm 3 mps 746 mmHg 55%
    19:00 +21°C° 0 mm 3 mps 746 mmHg 61%
    20:00 +21°C° 0 mm 4 mps 745 mmHg 61%
    21:00 +21°C° 0 mm 4 mps 745 mmHg 61%
    22:00 +21°C° 0 mm 5 mps 744 mmHg 61%
    23:00 +21°C° 0 mm 5 mps 744 mmHg 63%

    Tomorrow, 24 September, Monday

    Time Temperature Precipitation Wind Pressure Humidity
    00:00 +21°C° 0 mm 5 mps 743 mmHg 65%
    01:00 +21°C° 0 mm 5 mps 742 mmHg 68%
    02:00 +21°C° 0.4 mm 5 mps 742 mmHg 71%
    03:00 +20°C° 0.4 mm 5 mps 743 mmHg 74%
    04:00 +20°C° 0.4 mm 5 mps 743 mmHg 77%
    05:00 +17°C° 0.9 mm 6 mps 745 mmHg 76%
    06:00 +15°C° 0.9 mm 7 mps 747 mmHg 74%
    07:00 +12°C° 0.9 mm 8 mps 748 mmHg 72%
    08:00 +12°C° 0.5 mm 7 mps 750 mmHg 71%
    09:00 +11°C° 0.5 mm 6 mps 751 mmHg 71%
    10:00 +12°C° 0.5 mm 5 mps 753 mmHg 71%
    11:00 +13°C° 0.1 mm 5 mps 754 mmHg 65%
    12:00 +14°C° 0.1 mm 5 mps 754 mmHg 59%
    13:00 +15°C° 0.1 mm 4 mps 755 mmHg 53%
    14:00 +15°C° 0 mm 5 mps 755 mmHg 49%
    15:00 +16°C° 0 mm 5 mps 755 mmHg 45%
    16:00 +16°C° 0 mm 5 mps 755 mmHg 41%
    17:00 +14°C° 0 mm 5 mps 755 mmHg 44%
    18:00 +13°C° 0 mm 4 mps 756 mmHg 46%
    19:00 +12°C° 0 mm 3 mps 756 mmHg 49%
    20:00 +11°C° 0 mm 3 mps 757 mmHg 50%
    21:00 +10°C° 0 mm 3 mps 757 mmHg 51%
    22:00 +10°C° 0 mm 3 mps 758 mmHg 52%
    23:00 +9°C° 0 mm 3 mps 758 mmHg 54%

    Day after tomorrow, 25 September, Tuesday

    Time Temperature Precipitation Wind Pressure Humidity
    00:00 +9°C° 0 mm 3 mps 758 mmHg 55%
    01:00 +8°C° 0 mm 3 mps 759 mmHg 57%
    02:00 +8°C° 0 mm 3 mps 759 mmHg 59%
    03:00 +7°C° 0 mm 3 mps 759 mmHg 61%
    04:00 +7°C° 0 mm 3 mps 759 mmHg 63%
    05:00 +7°C° 0 mm 3 mps 760 mmHg 62%
    06:00 +7°C° 0 mm 4 mps 760 mmHg 60%
    07:00 +7°C° 0 mm 4 mps 760 mmHg 59%
    08:00 +9°C° 0 mm 5 mps 761 mmHg 52%
    09:00 +10°C° 0 mm 5 mps 761 mmHg 44%
    10:00 +13°C° 0 mm 6 mps 761 mmHg 37%
    11:00 +14°C° 0 mm 6 mps 761 mmHg 35%
    12:00 +15°C° 0 mm 6 mps 761 mmHg 32%
    13:00 +15°C° 0 mm 5 mps 761 mmHg 30%
    14:00 +15°C° 0 mm 5 mps 761 mmHg 31%
    15:00 +15°C° 0 mm 5 mps 760 mmHg 32%
    16:00 +15°C° 0 mm 5 mps 760 mmHg 33%
    17:00 +13°C° 0 mm 4 mps 761 mmHg 39%
    18:00 +11°C° 0 mm 3 mps 761 mmHg 44%
    19:00 +9°C° 0 mm 2 mps 762 mmHg 50%
    20:00 +9°C° 0 mm 2 mps 762 mmHg 53%
    21:00 +8°C° 0 mm 2 mps 762 mmHg 57%
    22:00 +8°C° 0 mm 2 mps 763 mmHg 60%
    23:00 +7°C° 0 mm 2 mps 763 mmHg 62%

    26 September, Wednesday

    Time Temperature Precipitation Wind Pressure Humidity
    00:00 +7°C° 0 mm 2 mps 763 mmHg 63%
    01:00 +6°C° 0 mm 2 mps 763 mmHg 65%
    02:00 +6°C° 0 mm 2 mps 763 mmHg 67%
    03:00 +6°C° 0 mm 2 mps 763 mmHg 68%
    04:00 +5°C° 0 mm 2 mps 763 mmHg 69%
    05:00 +6°C° 0 mm 2 mps 764 mmHg 66%
    06:00 +6°C° 0 mm 2 mps 764 mmHg 62%
    07:00 +7°C° 0 mm 2 mps 764 mmHg 59%
    08:00 +9°C° 0 mm 2 mps 764 mmHg 51%
    09:00 +13°C° 0 mm 2 mps 764 mmHg 43%
    10:00 +14°C° 0 mm 3 mps 764 mmHg 35%
    11:00 +16°C° 0 mm 3 mps 763 mmHg 33%
    12:00 +17°C° 0 mm 3 mps 763 mmHg 30%
    13:00 +18°C° 0 mm 3 mps 762 mmHg 27%
    14:00 +18°C° 0 mm 2 mps 762 mmHg 27%
    15:00 +18°C° 0 mm 2 mps 761 mmHg 27%
    16:00 +18°C° 0 mm 2 mps 761 mmHg 27%
    17:00 +16°C° 0 mm 2 mps 761 mmHg 31%
    18:00 +14°C° 0 mm 2 mps 760 mmHg 35%
    19:00 +12°C° 0 mm 1 mps 760 mmHg 39%
    20:00 +11°C° 0 mm 1 mps 760 mmHg 40%
    21:00 +11°C° 0 mm 1 mps 760 mmHg 42%
    22:00 +10°C° 0 mm 1 mps 760 mmHg 43%
    23:00 +10°C° 0 mm 1 mps 760 mmHg 43%

    27 September, Thursday

    Time Temperature Precipitation Wind Pressure Humidity
    00:00 +9°C° 0 mm 1 mps 760 mmHg 44%
    01:00 +9°C° 0 mm 1 mps 759 mmHg 45%
    02:00 +8°C° 0 mm 1 mps 759 mmHg 45%
    03:00 +8°C° 0 mm 1 mps 759 mmHg 46%
    04:00 +8°C° 0 mm 1 mps 758 mmHg 47%
    05:00 +8°C° 0 mm 1 mps 758 mmHg 46%
    06:00 +9°C° 0 mm 1 mps 758 mmHg 45%
    07:00 +10°C° 0 mm 1 mps 758 mmHg 44%
    08:00 +12°C° 0 mm 1 mps 758 mmHg 38%
    09:00 +15°C° 0 mm 1 mps 758 mmHg 32%
    10:00 +17°C° 0 mm 2 mps 758 mmHg 26%
    11:00 +19°C° 0 mm 2 mps 757 mmHg 24%
    12:00 +21°C° 0 mm 1 mps 757 mmHg 22%
    13:00 +23°C° 0 mm 1 mps 756 mmHg 19%
    14:00 +23°C° 0 mm 1 mps 755 mmHg 20%
    15:00 +23°C° 0 mm 1 mps 755 mmHg 21%
    16:00 +23°C° 0 mm 1 mps 754 mmHg 21%
    17:00 +20°C° 0 mm 1 mps 754 mmHg 25%
    18:00 +18°C° 0 mm 1 mps 754 mmHg 28%
    19:00 +15°C° 0 mm 1 mps 754 mmHg 32%
    20:00 +14°C° 0 mm 1 mps 754 mmHg 33%
    21:00 +12°C° 0 mm 0 mps 753 mmHg 34%
    22:00 +12°C° 0 mm 0 mps 753 mmHg 35%
    23:00 +11°C° 0 mm 0 mps 753 mmHg 36%

    28 September, Friday

    Time Temperature Precipitation Wind Pressure Humidity
    00:00 +11°C° 0 mm 0 mps 753 mmHg 37%
    01:00 +10°C° 0 mm 0 mps 752 mmHg 38%
    02:00 +10°C° 0 mm 0 mps 752 mmHg 40%
    03:00 +10°C° 0 mm 0 mps 752 mmHg 41%
    04:00 +10°C° 0 mm 1 mps 751 mmHg 42%
    05:00 +11°C° 0 mm 1 mps 751 mmHg 42%
    06:00 +12°C° 0 mm 1 mps 751 mmHg 43%
    07:00 +12°C° 0 mm 1 mps 752 mmHg 43%
    08:00 +15°C° 0 mm 1 mps 752 mmHg 39%
    09:00 +19°C° 0 mm 1 mps 752 mmHg 34%
    10:00 +20°C° 0 mm 2 mps 752 mmHg 30%
    11:00 +23°C° 0 mm 2 mps 751 mmHg 29%
    12:00 +24°C° 0 mm 2 mps 751 mmHg 28%
    13:00 +25°C° 0 mm 2 mps 750 mmHg 27%
    14:00 +25°C° 0 mm 2 mps 750 mmHg 28%
    15:00 +25°C° 0 mm 2 mps 749 mmHg 29%
    16:00 +25°C° 0 mm 2 mps 749 mmHg 29%
    17:00 +21°C° 0 mm 2 mps 749 mmHg 34%
    18:00 +19°C° 0 mm 2 mps 749 mmHg 40%
    19:00 +16°C° 0 mm 1 mps 749 mmHg 45%
    20:00 +16°C° 0 mm 1 mps 749 mmHg 48%
    21:00 +15°C° 0 mm 1 mps 749 mmHg 51%
    22:00 +14°C° 0 mm 1 mps 749 mmHg 53%
    23:00 +14°C° 0 mm 1 mps 749 mmHg 56%
    Show more